Weather History for KOLU - March, 2014

Change the Weather History Date:

Tuesday, March 11, 2014

  Actual Average Record
Temperature  
Mean Temperature 40 °F -  
Max Temperature 46 °F 48 °F 72 °F (1972)
Min Temperature 33 °F 26 °F -5 °F (1998)
Degree Days  
Heating Degree Days 26    
Moisture  
Dew Point 28 °F    
Average Humidity 65    
Maximum Humidity 81    
Minimum Humidity 46    
Precipitation  
Precipitation 0.09 in - - ()
Sea Level Pressure  
Sea Level Pressure 29.75 in    
Wind  
Wind Speed 11 mph (NNE)    
Max Wind Speed 39 mph    
Max Gust Speed 52 mph    
Visibility 9 miles    
Events      
Averages and records for this station are not official NWS values.
T = Trace of Precipitation, MM = Missing Value Source: NWS Daily Summary

Daily Weather History Graph

Daily Weather History Graph

Search for Another Location

Airport or City:

Trip Planner

Search our weather history database for the weather conditions in past years. The results will help you decide how hot, cold, wet, or windy it might be!

Date:

Astronomy

Mar. 11, 2014 Rise Set
Actual Time 7:47 AM CDT 7:31 PM CDT
Civil Twilight 7:20 AM CDT 7:59 PM CDT
Nautical Twilight 6:48 AM CDT 8:31 PM CDT
Astronomical Twilight 6:15 AM CDT 9:03 PM CDT
Moon 3:06 PM CDT (3/11) 4:44 AM CDT (3/11)
Length of Visible Light 12h 39m
Length of Day
11h 43m
Waxing Gibbous, 78% of the Moon is Illuminated
Mar 11
Waxing Gibbous
Mar 16
Full
Mar 23
Last Quarter
Mar 30
New
Apr 7
First Quarter

Hourly Weather History & Observations

Time (CDT) Temp. Windchill Dew Point Humidity Pressure Visibility Wind Dir Wind Speed Gust Speed Precip Events Conditions
12:15 AM 44.6 °F - 26.6 °F 49% 29.57 in 10.0 mi Calm Calm - N/A   Clear
12:35 AM 46.4 °F - 26.6 °F 46% 29.56 in 10.0 mi Calm Calm - N/A   Clear
12:55 AM 44.6 °F - 26.6 °F 49% 29.55 in 10.0 mi Calm Calm - N/A   Clear
1:15 AM 44.6 °F - 26.6 °F 49% 29.54 in 10.0 mi Calm Calm - N/A   Clear
1:35 AM 42.8 °F - 26.6 °F 53% 29.54 in 10.0 mi Calm Calm - N/A   Clear
1:55 AM 42.8 °F - 24.8 °F 49% 29.53 in 10.0 mi Calm Calm - N/A   Clear
2:15 AM 39.2 °F - 24.8 °F 56% 29.52 in 10.0 mi Calm Calm - N/A   Clear
2:35 AM 39.2 °F - 24.8 °F 56% 29.53 in 10.0 mi Calm Calm - N/A   Clear
2:55 AM 37.4 °F - 23.0 °F 56% 29.52 in 10.0 mi Calm Calm - N/A   Clear
3:15 AM 35.6 °F - 21.2 °F 56% 29.51 in 10.0 mi Calm Calm - N/A   Clear
3:35 AM 39.2 °F - 24.8 °F 56% 29.50 in 10.0 mi Calm Calm - N/A   Clear
3:55 AM 35.6 °F - 23.0 °F 60% 29.49 in 10.0 mi Calm Calm - N/A   Clear
4:15 AM 35.6 °F - 23.0 °F 60% 29.48 in 10.0 mi Calm Calm - N/A   Clear
4:35 AM 37.4 °F - 23.0 °F 56% 29.47 in 10.0 mi Calm Calm - N/A   Clear
4:55 AM 35.6 °F - 21.2 °F 56% 29.46 in 10.0 mi Calm Calm - N/A   Clear
5:15 AM 37.4 °F 33.8 °F 24.8 °F 60% 29.47 in 10.0 mi North 4.6 mph - N/A   Clear
5:35 AM 35.6 °F 30.7 °F 24.8 °F 65% 29.48 in 10.0 mi NNE 5.8 mph - N/A   Clear
5:55 AM 39.2 °F 35.0 °F 26.6 °F 61% 29.49 in 10.0 mi North 5.8 mph - N/A   Clear
6:15 AM 39.2 °F 34.2 °F 26.6 °F 61% 29.49 in 10.0 mi NNE 6.9 mph - N/A   Clear
6:35 AM 39.2 °F 33.6 °F 28.4 °F 65% 29.49 in 10.0 mi NE 8.1 mph - N/A   Clear
6:55 AM 39.2 °F 35.0 °F 28.4 °F 65% 29.49 in 10.0 mi NE 5.8 mph - N/A   Clear
7:15 AM 41.0 °F 34.7 °F 30.2 °F 65% 29.50 in 10.0 mi NNE 10.4 mph - N/A   Clear
7:35 AM 41.0 °F 34.3 °F 32.0 °F 70% 29.51 in 10.0 mi NE 11.5 mph - N/A   Clear
7:55 AM 41.0 °F 33.5 °F 32.0 °F 70% 29.54 in 10.0 mi North 13.8 mph 18.4 mph N/A   Clear
8:15 AM 41.0 °F 32.8 °F 33.8 °F 76% 29.57 in 10.0 mi NNE 16.1 mph 19.6 mph N/A   Clear
8:35 AM 42.8 °F 34.3 °F 32.0 °F 66% 29.58 in 10.0 mi NNE 19.6 mph 28.8 mph N/A   Clear
8:55 AM 42.8 °F 34.0 °F 28.4 °F 57% 29.60 in 10.0 mi NNE 20.7 mph 28.8 mph N/A   Clear
9:15 AM 42.8 °F 32.3 °F 28.4 °F 57% 29.61 in 10.0 mi NNE 29.9 mph 39.1 mph N/A   Clear
9:35 AM 42.8 °F 31.9 °F 28.4 °F 57% 29.59 in 8.0 mi NNE 32.2 mph 41.4 mph N/A   Clear
9:55 AM 41.0 °F 30.2 °F 28.4 °F 61% 29.63 in 3.0 mi NE 27.6 mph 46.0 mph N/A   Clear
10:15 AM 42.8 °F 31.8 °F 30.2 °F 61% 29.65 in 9.0 mi NNE 33.4 mph 41.4 mph N/A   Clear
10:35 AM 42.8 °F 31.0 °F 30.2 °F 61% 29.64 in 5.0 mi NNE 39.1 mph 47.2 mph N/A   Clear
10:55 AM 42.8 °F 31.3 °F 30.2 °F 61% 29.62 in 3.0 mi NE 36.8 mph 51.8 mph N/A   Clear
11:15 AM 44.6 °F 34.1 °F 32.0 °F 61% 29.66 in 5.0 mi NNE 34.5 mph 46.0 mph N/A   Clear
11:35 AM 42.8 °F 31.8 °F 32.0 °F 66% 29.71 in 9.0 mi NE 33.4 mph 41.4 mph N/A   Mostly Cloudy
11:55 AM 42.8 °F 32.3 °F 32.0 °F 66% 29.72 in 10.0 mi NE 29.9 mph 40.3 mph N/A   Overcast
12:15 PM 44.6 °F 34.4 °F 32.0 °F 61% 29.74 in 10.0 mi NNE 32.2 mph 41.4 mph N/A   Overcast
12:35 PM 44.6 °F 33.9 °F 32.0 °F 61% 29.75 in 10.0 mi NNE 35.7 mph 44.9 mph N/A   Overcast
12:55 PM 44.6 °F 34.2 °F 32.0 °F 61% 29.76 in 10.0 mi NNE 33.4 mph 40.3 mph N/A   Overcast
1:15 PM 44.6 °F 33.8 °F 30.2 °F 57% 29.76 in 8.0 mi NNE 36.8 mph 46.0 mph N/A   Overcast
1:35 PM 42.8 °F 31.6 °F 30.2 °F 61% 29.77 in 10.0 mi NNE 34.5 mph 41.4 mph N/A   Overcast
1:55 PM 42.8 °F 32.3 °F 30.2 °F 61% 29.78 in 10.0 mi NNE 29.9 mph 42.6 mph N/A   Overcast
2:15 PM 42.8 °F 32.3 °F 30.2 °F 61% 29.79 in 10.0 mi NNE 29.9 mph 40.3 mph N/A   Overcast
2:35 PM 42.8 °F 31.8 °F 30.2 °F 61% 29.80 in 10.0 mi NNE 33.4 mph 40.3 mph N/A   Overcast
2:55 PM 42.8 °F 32.3 °F 30.2 °F 61% 29.82 in 10.0 mi NNE 29.9 mph 35.7 mph N/A   Overcast
3:15 PM 39.2 °F 27.4 °F 30.2 °F 70% 29.84 in 10.0 mi NNE 29.9 mph 34.5 mph N/A   Overcast
3:35 PM 37.4 °F 26.1 °F 30.2 °F 75% 29.87 in 10.0 mi North 24.2 mph 28.8 mph N/A   Overcast
3:55 PM 35.6 °F 24.5 °F 28.4 °F 75% 29.88 in 8.0 mi North 20.7 mph 27.6 mph 0.01 in   Overcast
4:15 PM 33.8 °F 22.8 °F 28.4 °F 81% 29.90 in 8.0 mi North 18.4 mph - 0.02 in   Overcast
4:35 PM 33.8 °F 22.5 °F 28.4 °F 81% 29.92 in 6.0 mi North 19.6 mph 25.3 mph 0.04 in   Overcast
4:55 PM 35.6 °F 25.5 °F 28.4 °F 75% 29.93 in 7.0 mi North 17.3 mph 23.0 mph 0.06 in   Overcast
5:15 PM 35.6 °F 25.9 °F 30.2 °F 81% 29.95 in 8.0 mi North 16.1 mph - 0.01 in   Overcast
5:35 PM 35.6 °F 24.0 °F 30.2 °F 81% 29.96 in 9.0 mi North 23.0 mph 27.6 mph 0.02 in   Overcast
5:55 PM 35.6 °F 25.9 °F 30.2 °F 81% 29.99 in 10.0 mi NNE 16.1 mph 29.9 mph 0.02 in   Overcast
6:15 PM 35.6 °F 25.5 °F 28.4 °F 75% 29.99 in 10.0 mi NNE 17.3 mph 26.5 mph N/A   Overcast
6:35 PM 35.6 °F 27.5 °F 28.4 °F 75% 30.00 in 10.0 mi North 11.5 mph - N/A   Scattered Clouds
6:55 PM 35.6 °F 28.0 °F 30.2 °F 81% 30.02 in 10.0 mi North 10.4 mph - N/A   Clear
7:15 PM 37.4 °F 29.8 °F 30.2 °F 75% 30.03 in 10.0 mi North 11.5 mph - N/A   Clear
7:35 PM 37.4 °F 29.8 °F 30.2 °F 75% 30.04 in 10.0 mi North 11.5 mph - N/A   Clear
7:55 PM 37.4 °F 29.8 °F 28.4 °F 70% 30.05 in 10.0 mi North 11.5 mph - N/A   Clear
8:15 PM 37.4 °F 29.8 °F 28.4 °F 70% 30.06 in 10.0 mi NNW 11.5 mph - N/A   Clear
8:35 PM 37.4 °F 29.3 °F 28.4 °F 70% 30.07 in 10.0 mi NNW 12.7 mph - N/A   Clear
8:55 PM 37.4 °F 29.8 °F 28.4 °F 70% 30.07 in 10.0 mi NNW 11.5 mph - N/A   Partly Cloudy
9:15 PM 37.4 °F 29.8 °F 28.4 °F 70% 30.07 in 10.0 mi NNW 11.5 mph - N/A   Partly Cloudy
9:35 PM 37.4 °F 29.8 °F 28.4 °F 70% 30.08 in 10.0 mi NNW 11.5 mph - N/A   Clear
9:55 PM 35.6 °F 27.5 °F 28.4 °F 75% 30.09 in 10.0 mi NNW 11.5 mph - N/A   Clear
10:15 PM 35.6 °F 26.6 °F 26.6 °F 70% 30.10 in 10.0 mi NNW 13.8 mph - N/A   Clear
10:35 PM 35.6 °F 25.9 °F 28.4 °F 75% 30.11 in 10.0 mi NNW 16.1 mph - N/A   Scattered Clouds
10:55 PM 35.6 °F 26.2 °F 28.4 °F 75% 30.12 in 10.0 mi NNW 15.0 mph - N/A   Overcast
11:15 PM 35.6 °F 27.1 °F 28.4 °F 75% 30.13 in 10.0 mi NNW 12.7 mph - N/A   Mostly Cloudy
11:35 PM 35.6 °F 27.1 °F 28.4 °F 75% 30.13 in 10.0 mi NNW 12.7 mph - N/A   Partly Cloudy
11:55 PM 35.6 °F 26.2 °F 28.4 °F 75% 30.13 in 10.0 mi NNW 15.0 mph 19.6 mph N/A   Clear